Hourly Data Report for October 05, 2016

All times are specified in Local Standard Time (LST). Add 1 hour to adjust for Daylight Saving Time where and when it is observed.

TORONTO INTL A
ONTARIO

43°40'36.000" N
79°37'50.000" W
173.40 m
6158731
71624
YYZ

Download Data

Hourly Data (October 2016)
Hourly Data Report for October 5, 2016
Temp Definition
°C
Dew Point Temp Definition
°C
Rel Hum Definition
%
Wind Dir Definition
10's deg

Wind Spd Definition
km/h
Visibility Definition
km
Stn Press Definition
kPa
Hmdx Definition


Wind Chill Definition


Weather Definition


TIME
00:00 Legend Double Dagger 15.5 14.2 92 10 10 24.1 100.34     LegendNANA
01:00 Legend Double Dagger 14.9 14.0 94 10 9 24.1 100.35     Clear
02:00 Legend Double Dagger 14.5 13.7 95 10 10 24.1 100.32     LegendNANA
03:00 Legend Double Dagger 14.2 13.4 95 10 9 24.1 100.30     LegendNANA
04:00 Legend Double Dagger 14.2 13.4 95 12 8 24.1 100.32     Clear
05:00 Legend Double Dagger 14.7 13.4 92 15 8 24.1 100.36     LegendNANA
06:00 Legend Double Dagger 14.7 13.4 92 14 9 24.1 100.41     LegendNANA
07:00 Legend Double Dagger 15.1 13.7 91 12 7 24.1 100.43     Clear
08:00 Legend Double Dagger 16.7 14.0 84 14 10 24.1 100.44     LegendNANA
09:00 Legend Double Dagger 17.8 14.0 78 13 12 24.1 100.43     LegendNANA
10:00 Legend Double Dagger 18.4 14.2 76 15 15 24.1 100.40     Mostly Cloudy
11:00 Legend Double Dagger 18.4 13.5 73 14 12 24.1 100.36     LegendNANA
12:00 Legend Double Dagger 19.1 14.2 73 13 16 24.1 100.31     LegendNANA
13:00 Legend Double Dagger 18.9 13.6 71 12 18 24.1 100.23     Clear
14:00 Legend Double Dagger 19.8 13.4 66 14 13 24.1 100.20     LegendNANA
15:00 Legend Double Dagger 20.2 13.3 64 15 14 24.1 100.16     LegendNANA
16:00 Legend Double Dagger 19.6 12.7 64 14 13 24.1 100.12     Mainly Clear
17:00 Legend Double Dagger 19.0 13.5 70 10 16 24.1 100.11     LegendNANA
18:00 Legend Double Dagger 17.1 13.3 78 10 17 24.1 100.07     LegendNANA
19:00 Legend Double Dagger 16.4 13.2 81 10 13 24.1 100.06     Mainly Clear
20:00 Legend Double Dagger 16.4 13.4 82 10 13 24.1 100.04     LegendNANA
21:00 Legend Double Dagger 16.8 14.7 87 12 7 24.1 100.08     LegendNANA
22:00 Legend Double Dagger 16.8 14.8 88 16 9 24.1 100.09     Mainly Clear
23:00 Legend Double Dagger 16.8 13.9 83 20 10 24.1 100.13     LegendNANA

Notes on Data Quality.

Legend

  • E = Estimated
  • M = Missing
  • NA = Not Available
  • ‡ = Partner data that is not subject to review by the National Climate Archives
Date modified: